SAS1941 EDDL-ENBR

Flight info

Callsign SAS1941
Flight time 1h 36m
Altitude 38000
Route MEVEL4T MEVEL Y850 JUWGI Z529 ATPAQ DCT DOROR DCT BADAB
Aircraft A20N/M-SDE2E3FGHIRWXY/LB1

Departure

Time 2026-05-04 09:09
Airport Düsseldorf Airport (EDDL)

Arrival

Time 2026-05-04 10:46
Airport Bergen Airport, Flesland (ENBR)
Time Latitude Longitude Altitude Speed Heading
2026-05-04 08:40 51.28011 6.76417 123 ft 0 kts 208°
2026-05-04 09:01 51.28056 6.76449 124 ft 4 kts 170°
2026-05-04 09:01 51.28078 6.76434 123 ft 4 kts 146°
2026-05-04 09:01 51.28098 6.76413 124 ft 4 kts 141°
2026-05-04 09:01 51.28116 6.76387 123 ft 4 kts 130°
2026-05-04 09:02 51.28131 6.76355 122 ft 4 kts 119°
2026-05-04 09:02 51.28142 6.76321 125 ft 4 kts 108°
2026-05-04 09:02 51.28146 6.76282 123 ft 4 kts 87°
2026-05-04 09:02 51.28142 6.76244 124 ft 4 kts 65°
2026-05-04 09:03 51.28130 6.76212 122 ft 2 kts 52°
2026-05-04 09:03 51.28129 6.76209 122 ft 3 kts 52°
2026-05-04 09:05 51.28138 6.76227 124 ft 5 kts 50°
2026-05-04 09:05 51.28179 6.76247 126 ft 8 kts 349°
2026-05-04 09:05 51.28233 6.76248 125 ft 9 kts 28°
2026-05-04 09:06 51.28282 6.76340 122 ft 13 kts 53°
2026-05-04 09:07 51.29077 6.78006 127 ft 33 kts 52°
2026-05-04 09:08 51.29214 6.78295 139 ft 31 kts 53°
2026-05-04 09:08 51.29330 6.78533 150 ft 15 kts 43°
2026-05-04 09:08 51.29390 6.78573 152 ft 9 kts 359°
2026-05-04 09:08 51.29463 6.78564 152 ft 20 kts 354°
2026-05-04 09:09 51.29451 6.78335 146 ft 46 kts 232°
2026-05-04 09:09 51.29079 6.77549 127 ft 127 kts 232°
2026-05-04 09:09 51.28457 6.76234 425 ft 161 kts 233°
2026-05-04 09:09 51.27782 6.74775 1310 ft 162 kts 232°
2026-05-04 09:10 51.27075 6.73268 1972 ft 177 kts 232°
2026-05-04 09:10 51.26305 6.71637 2586 ft 190 kts 232°
2026-05-04 09:10 51.25502 6.69940 3409 ft 191 kts 232°
2026-05-04 09:10 51.24745 6.68189 4232 ft 194 kts 245°
2026-05-04 09:11 51.24603 6.66058 5008 ft 200 kts 280°
2026-05-04 09:11 51.25286 6.64015 5489 ft 225 kts 314°
2026-05-04 09:11 51.26715 6.62738 5940 ft 251 kts 346°
2026-05-04 09:11 51.28526 6.62773 6437 ft 274 kts 15°
2026-05-04 09:12 51.30315 6.63999 7182 ft 284 kts 27°
2026-05-04 09:12 51.32078 6.65470 8083 ft 288 kts 25°
2026-05-04 09:14 51.47279 6.69621 12763 ft 358 kts 357°
2026-05-04 09:14 51.49791 6.69622 13514 ft 364 kts 357°
2026-05-04 09:14 51.52348 6.69629 14228 ft 369 kts 357°
2026-05-04 09:14 51.54925 6.69636 14950 ft 372 kts 357°
2026-05-04 09:15 51.57532 6.69642 15670 ft 376 kts 357°
2026-05-04 09:15 51.60120 6.70028 16350 ft 383 kts 13°
2026-05-04 09:15 51.62586 6.71725 17077 ft 391 kts 31°
2026-05-04 09:15 51.64647 6.74610 17761 ft 397 kts 49°
2026-05-04 09:17 51.82585 6.97473 22141 ft 436 kts 32°
2026-05-04 09:18 51.85131 7.00190 22646 ft 441 kts 32°
2026-05-04 09:18 51.87703 7.02949 23134 ft 446 kts 32°
2026-05-04 09:18 51.90306 7.05746 23626 ft 451 kts 32°
2026-05-04 09:18 51.92935 7.08576 24096 ft 454 kts 32°
2026-05-04 09:19 51.95578 7.11424 24576 ft 456 kts 32°
2026-05-04 09:19 51.98188 7.14240 25029 ft 459 kts 32°
2026-05-04 09:19 52.00859 7.17125 25493 ft 461 kts 32°
2026-05-04 09:19 52.03533 7.20018 25935 ft 464 kts 32°
2026-05-04 09:20 52.06230 7.22940 26373 ft 467 kts 32°
2026-05-04 09:20 52.08937 7.25878 26837 ft 469 kts 31°
2026-05-04 09:20 52.11658 7.28834 27248 ft 472 kts 31°
2026-05-04 09:20 52.14393 7.31809 27717 ft 474 kts 31°
2026-05-04 09:21 52.17148 7.34812 28132 ft 478 kts 31°
2026-05-04 09:21 52.19928 7.37846 28534 ft 480 kts 31°
2026-05-04 09:21 52.22681 7.40854 28898 ft 483 kts 31°
2026-05-04 09:21 52.25510 7.43952 29302 ft 484 kts 31°
2026-05-04 09:22 52.28313 7.47026 29659 ft 486 kts 31°
2026-05-04 09:22 52.31096 7.50083 29955 ft 490 kts 31°
2026-05-04 09:22 52.33932 7.53201 30271 ft 492 kts 31°
2026-05-04 09:22 52.36774 7.56331 30577 ft 494 kts 31°
2026-05-04 09:23 52.39633 7.59485 30888 ft 496 kts 31°
2026-05-04 09:23 52.42500 7.62653 31196 ft 497 kts 31°
2026-05-04 09:23 52.45360 7.65820 31612 ft 497 kts 31°
2026-05-04 09:23 52.48228 7.68998 32045 ft 496 kts 31°
2026-05-04 09:25 52.70325 7.71838 34543 ft 462 kts 345°
2026-05-04 09:25 52.73503 7.70971 34813 ft 463 kts 346°
2026-05-04 09:26 52.76687 7.70179 35099 ft 463 kts 347°
2026-05-04 09:26 52.79875 7.69425 35428 ft 461 kts 347°
2026-05-04 09:26 52.83047 7.68689 35688 ft 460 kts 347°
2026-05-04 09:26 52.86219 7.67955 35931 ft 460 kts 347°
2026-05-04 09:27 52.89346 7.67241 36159 ft 460 kts 347°
2026-05-04 09:27 52.92513 7.66521 36394 ft 459 kts 347°
2026-05-04 09:27 52.95673 7.65794 36619 ft 459 kts 347°
2026-05-04 09:27 52.98834 7.65058 36832 ft 458 kts 347°
2026-05-04 09:28 53.01986 7.64319 37101 ft 457 kts 347°
2026-05-04 09:28 53.05129 7.63578 37440 ft 454 kts 347°
2026-05-04 09:28 53.08245 7.62842 37679 ft 452 kts 347°
2026-05-04 09:28 53.11363 7.62105 37862 ft 452 kts 347°
2026-05-04 09:29 53.14475 7.61367 37987 ft 452 kts 347°
2026-05-04 09:29 53.17592 7.60628 37991 ft 451 kts 347°
2026-05-04 09:29 53.23805 7.59154 37993 ft 451 kts 347°
2026-05-04 09:30 53.29982 7.57683 37997 ft 451 kts 347°
2026-05-04 09:30 53.36199 7.56199 37999 ft 451 kts 347°
2026-05-04 09:31 53.42414 7.54712 37996 ft 451 kts 347°
2026-05-04 09:31 53.48628 7.53220 38020 ft 451 kts 347°
2026-05-04 09:32 53.54842 7.51724 38027 ft 451 kts 347°
2026-05-04 09:34 53.79674 7.45705 38007 ft 451 kts 347°
2026-05-04 09:34 53.85893 7.44187 38012 ft 451 kts 347°
2026-05-04 09:35 53.92080 7.42672 38018 ft 452 kts 347°
2026-05-04 09:35 53.98306 7.41143 38020 ft 452 kts 347°
2026-05-04 09:37 54.23279 7.34962 38027 ft 454 kts 347°
2026-05-04 09:38 54.29485 7.33415 38018 ft 455 kts 347°
2026-05-04 09:38 54.35747 7.31849 38025 ft 455 kts 347°
2026-05-04 09:39 54.42016 7.30277 38028 ft 455 kts 347°
2026-05-04 09:39 54.48293 7.28698 38031 ft 456 kts 347°
2026-05-04 09:40 54.54573 7.27114 38040 ft 456 kts 347°
2026-05-04 09:40 54.60861 7.25522 38030 ft 457 kts 347°
2026-05-04 09:42 54.86000 7.19110 38031 ft 457 kts 347°
2026-05-04 09:43 54.92253 7.17503 38028 ft 457 kts 347°
2026-05-04 09:43 54.98543 7.15882 38026 ft 457 kts 347°
2026-05-04 09:44 55.03813 7.14536 38031 ft 457 kts 347°
2026-05-04 09:46 55.28906 7.08251 38019 ft 455 kts 348°
2026-05-04 09:46 55.35167 7.06666 38024 ft 453 kts 348°
2026-05-04 09:47 55.41410 7.05081 38023 ft 453 kts 348°
2026-05-04 09:49 55.66364 6.98693 38023 ft 453 kts 348°
2026-05-04 09:51 55.88124 6.93056 38006 ft 450 kts 348°
2026-05-04 09:51 55.94279 6.91450 37994 ft 450 kts 348°
2026-05-04 09:52 56.00471 6.89828 37992 ft 450 kts 348°
2026-05-04 09:52 56.06664 6.88202 37991 ft 449 kts 348°
2026-05-04 09:53 56.12855 6.86571 38009 ft 450 kts 347°
2026-05-04 09:53 56.19044 6.84934 38021 ft 449 kts 348°
2026-05-04 09:54 56.25229 6.83293 38012 ft 449 kts 348°
2026-05-04 09:54 56.31415 6.81648 38013 ft 449 kts 348°
2026-05-04 09:55 56.37608 6.79994 38005 ft 449 kts 347°
2026-05-04 09:55 56.43749 6.78350 38009 ft 449 kts 347°
2026-05-04 09:56 56.49938 6.76686 37998 ft 448 kts 347°
2026-05-04 09:56 56.56112 6.75021 37991 ft 448 kts 347°
2026-05-04 09:57 56.62276 6.73354 37993 ft 447 kts 347°
2026-05-04 09:57 56.68388 6.71696 37978 ft 447 kts 347°
2026-05-04 09:58 56.74534 6.70022 37996 ft 446 kts 347°
2026-05-04 09:58 56.80677 6.68343 37983 ft 446 kts 347°
2026-05-04 10:00 57.05181 6.61594 37975 ft 444 kts 347°
2026-05-04 10:02 57.26483 6.55657 37284 ft 437 kts 347°
2026-05-04 10:04 57.47293 6.49778 32353 ft 430 kts 348°
2026-05-04 10:04 57.50240 6.48946 31736 ft 426 kts 347°
2026-05-04 10:04 57.53158 6.48119 31102 ft 422 kts 347°
2026-05-04 10:04 57.56015 6.47306 30479 ft 418 kts 347°
2026-05-04 10:05 57.58882 6.46487 29852 ft 414 kts 347°
2026-05-04 10:05 57.61711 6.45679 29235 ft 408 kts 347°
2026-05-04 10:05 57.64501 6.44882 28676 ft 402 kts 347°
2026-05-04 10:05 57.67258 6.44092 28117 ft 398 kts 346°
2026-05-04 10:06 57.69998 6.43303 27582 ft 399 kts 346°
2026-05-04 10:06 57.72748 6.42508 27054 ft 401 kts 346°
2026-05-04 10:06 57.75506 6.41712 26533 ft 400 kts 346°
2026-05-04 10:08 57.92166 6.36892 24938 ft 410 kts 345°
2026-05-04 10:08 57.94984 6.36071 24938 ft 409 kts 345°
2026-05-04 10:08 57.97793 6.35252 24939 ft 409 kts 345°
2026-05-04 10:08 58.00608 6.34431 24936 ft 409 kts 345°
2026-05-04 10:09 58.03420 6.33608 24932 ft 409 kts 345°
2026-05-04 10:09 58.06242 6.32782 24944 ft 410 kts 345°
2026-05-04 10:09 58.09064 6.31953 24936 ft 410 kts 345°
2026-05-04 10:09 58.11892 6.31122 24935 ft 410 kts 345°
2026-05-04 10:10 58.14710 6.30291 24920 ft 410 kts 345°
2026-05-04 10:10 58.17531 6.29459 24923 ft 410 kts 345°
2026-05-04 10:10 58.20349 6.28627 24925 ft 410 kts 345°
2026-05-04 10:10 58.23136 6.27802 24923 ft 410 kts 345°
2026-05-04 10:11 58.25955 6.26967 24914 ft 410 kts 345°
2026-05-04 10:11 58.28775 6.26129 24916 ft 410 kts 345°
2026-05-04 10:11 58.31598 6.25290 24922 ft 410 kts 345°
2026-05-04 10:11 58.34417 6.24452 24919 ft 410 kts 345°
2026-05-04 10:12 58.37230 6.23613 24914 ft 410 kts 345°
2026-05-04 10:12 58.40056 6.22768 24914 ft 411 kts 345°
2026-05-04 10:12 58.42878 6.21923 24923 ft 409 kts 345°
2026-05-04 10:12 58.45678 6.21087 24796 ft 405 kts 345°
2026-05-04 10:13 58.48452 6.20257 24473 ft 399 kts 345°
2026-05-04 10:13 58.51168 6.19446 24148 ft 391 kts 344°
2026-05-04 10:13 58.53808 6.18652 23542 ft 390 kts 344°
2026-05-04 10:13 58.56487 6.17839 22843 ft 388 kts 344°
2026-05-04 10:14 58.59139 6.17037 22245 ft 384 kts 344°
2026-05-04 10:14 58.61767 6.16244 21649 ft 380 kts 343°
2026-05-04 10:16 58.79501 6.10842 18091 ft 362 kts 343°
2026-05-04 10:16 58.81993 6.10073 17678 ft 360 kts 343°
2026-05-04 10:16 58.84453 6.09317 17270 ft 357 kts 343°
2026-05-04 10:16 58.86898 6.08568 16865 ft 353 kts 343°
2026-05-04 10:17 58.89323 6.07827 16524 ft 353 kts 343°
2026-05-04 10:17 58.91740 6.07084 16119 ft 350 kts 343°
2026-05-04 10:19 59.07749 5.99415 14031 ft 333 kts 337°
2026-05-04 10:19 59.09982 5.98196 13797 ft 332 kts 337°
2026-05-04 10:19 59.12207 5.96984 13528 ft 331 kts 337°
2026-05-04 10:19 59.14422 5.95779 13242 ft 329 kts 337°
2026-05-04 10:20 59.16622 5.94584 12973 ft 327 kts 338°
2026-05-04 10:20 59.18812 5.93393 12740 ft 326 kts 337°
2026-05-04 10:20 59.20984 5.92212 12465 ft 321 kts 337°
2026-05-04 10:20 59.23128 5.91042 12199 ft 320 kts 338°
2026-05-04 10:21 59.25270 5.89867 11940 ft 320 kts 338°
2026-05-04 10:21 59.27393 5.88705 11675 ft 313 kts 338°
2026-05-04 10:21 59.29458 5.87579 11411 ft 303 kts 338°
2026-05-04 10:21 59.31461 5.86484 11153 ft 294 kts 338°
2026-05-04 10:22 59.35259 5.84397 10637 ft 277 kts 338°
2026-05-04 10:22 59.37086 5.83385 10376 ft 269 kts 338°
2026-05-04 10:22 59.38869 5.82397 10133 ft 265 kts 338°
2026-05-04 10:23 59.40650 5.81409 9900 ft 264 kts 338°
2026-05-04 10:23 59.42394 5.80446 9684 ft 256 kts 338°
2026-05-04 10:25 59.53461 5.74293 8305 ft 230 kts 338°
2026-05-04 10:25 59.54988 5.73448 8146 ft 228 kts 338°
2026-05-04 10:25 59.56524 5.72593 7959 ft 228 kts 338°
2026-05-04 10:25 59.58027 5.71774 7780 ft 227 kts 338°
2026-05-04 10:26 59.59565 5.70915 7575 ft 224 kts 338°
2026-05-04 10:26 59.61056 5.70075 7402 ft 229 kts 338°
2026-05-04 10:26 59.62596 5.69206 7239 ft 229 kts 339°
2026-05-04 10:26 59.64125 5.68347 7066 ft 228 kts 339°
2026-05-04 10:27 59.65657 5.67489 6873 ft 227 kts 339°
2026-05-04 10:27 59.67175 5.66638 6696 ft 228 kts 339°
2026-05-04 10:27 59.68703 5.65779 6526 ft 229 kts 339°
2026-05-04 10:27 59.70191 5.64941 6349 ft 228 kts 339°
2026-05-04 10:28 59.71763 5.64056 6157 ft 229 kts 339°
2026-05-04 10:28 59.73295 5.63193 5966 ft 228 kts 340°
2026-05-04 10:28 59.74817 5.62336 5783 ft 227 kts 340°
2026-05-04 10:28 59.76337 5.61478 5595 ft 226 kts 340°
2026-05-04 10:29 59.77852 5.60621 5447 ft 226 kts 340°
2026-05-04 10:29 59.79363 5.59779 5250 ft 225 kts 343°
2026-05-04 10:29 59.80927 5.59480 5098 ft 227 kts 354°
2026-05-04 10:29 59.82519 5.59375 5024 ft 228 kts 354°
2026-05-04 10:30 59.84081 5.59272 5027 ft 228 kts 354°
2026-05-04 10:30 59.85670 5.59165 5024 ft 229 kts 354°
2026-05-04 10:30 59.87261 5.59054 5033 ft 229 kts 354°
2026-05-04 10:30 59.88832 5.58752 5025 ft 226 kts 351°
2026-05-04 10:31 59.90413 5.58464 5019 ft 228 kts 350°
2026-05-04 10:31 59.91476 5.58242 5022 ft 228 kts 352°
2026-05-04 10:32 60.00898 5.56438 5017 ft 226 kts 343°
2026-05-04 10:33 60.02905 5.55328 5015 ft 223 kts 341°
2026-05-04 10:33 60.04403 5.54446 5013 ft 226 kts 340°
2026-05-04 10:33 60.05422 5.53850 5011 ft 225 kts 341°
2026-05-04 10:33 60.06975 5.52951 5005 ft 252 kts 341°
2026-05-04 10:34 60.08699 5.51964 4999 ft 259 kts 341°
2026-05-04 10:34 60.10435 5.50989 4998 ft 260 kts 342°
2026-05-04 10:34 60.12173 5.50018 4998 ft 260 kts 342°
2026-05-04 10:34 60.13915 5.49043 4998 ft 259 kts 342°
2026-05-04 10:35 60.15653 5.48066 4997 ft 260 kts 342°
2026-05-04 10:35 60.17381 5.47094 5000 ft 260 kts 342°
2026-05-04 10:35 60.19104 5.46125 4994 ft 251 kts 342°
2026-05-04 10:35 60.20748 5.45200 4886 ft 240 kts 341°
2026-05-04 10:36 60.22320 5.44313 4785 ft 230 kts 341°
2026-05-04 10:36 60.23837 5.43451 4560 ft 224 kts 342°
2026-05-04 10:36 60.25358 5.42588 4430 ft 229 kts 341°
2026-05-04 10:36 60.26881 5.41726 4300 ft 227 kts 342°
2026-05-04 10:37 60.28396 5.40865 4165 ft 227 kts 342°
2026-05-04 10:37 60.29917 5.39999 4038 ft 226 kts 341°
2026-05-04 10:37 60.31427 5.39140 4004 ft 226 kts 342°
2026-05-04 10:37 60.32942 5.38278 4000 ft 226 kts 342°
2026-05-04 10:39 60.41873 5.33175 3999 ft 220 kts 342°
2026-05-04 10:39 60.43353 5.32329 4002 ft 221 kts 342°
2026-05-04 10:39 60.44830 5.31483 4002 ft 220 kts 342°
2026-05-04 10:40 60.46313 5.30628 4002 ft 222 kts 342°
2026-05-04 10:40 60.47791 5.29770 3997 ft 220 kts 339°
2026-05-04 10:40 60.49033 5.28103 4003 ft 212 kts 307°
2026-05-04 10:40 60.49577 5.25487 3932 ft 202 kts 275°
2026-05-04 10:41 60.49357 5.22737 3685 ft 201 kts 245°
2026-05-04 10:41 60.48661 5.20270 3346 ft 203 kts 242°
2026-05-04 10:41 60.47890 5.17882 3108 ft 201 kts 225°
2026-05-04 10:41 60.46623 5.16587 3037 ft 211 kts 192°
2026-05-04 10:42 60.45194 5.16506 2975 ft 198 kts 176°
2026-05-04 10:42 60.43876 5.16875 2863 ft 184 kts 172°
2026-05-04 10:42 60.42678 5.17299 2663 ft 171 kts 173°
2026-05-04 10:42 60.41485 5.17698 2437 ft 172 kts 172°
2026-05-04 10:43 60.40317 5.18097 2209 ft 170 kts 172°
2026-05-04 10:44 60.32967 5.20587 710 ft 135 kts 173°
2026-05-04 10:45 60.32060 5.20894 536 ft 131 kts 173°
2026-05-04 10:45 60.31168 5.21195 365 ft 129 kts 173°
2026-05-04 10:45 60.30293 5.21503 196 ft 127 kts 174°
2026-05-04 10:45 60.29511 5.21752 148 ft 89 kts 171°
2026-05-04 10:46 60.29092 5.21888 162 ft 32 kts 166°
2026-05-04 10:46 60.28932 5.21966 161 ft 18 kts 145°
2026-05-04 10:46 60.28923 5.22218 159 ft 19 kts 80°
2026-05-04 10:46 60.28906 5.22397 166 ft 11 kts 153°
2026-05-04 10:47 60.28889 5.22474 169 ft 4 kts 87°
2026-05-04 10:47 60.28889 5.22497 171 ft 0 kts 86°
2026-05-04 10:47 60.28893 5.22546 173 ft 1 kts 82°
2026-05-04 10:47 60.28893 5.22549 173 ft 0 kts 82°